| time (UTC) | temp F | wind direction | speed MPH | gust MPH | rain 1hr in | rain 24hr in | rain mn in | humidity % | barometer mb |
| 20260510201028 | 57 | 355 | 0.0 | 0.0 | 0.00 | 1.69 | 0.34 | 89 | 1008.6 |
| 20260510200515 | 58 | 355 | 0.0 | 0.0 | 0.00 | 1.69 | 0.34 | 88 | 1008.6 |
| 20260510200045 | 58 | 355 | 0.0 | 0.0 | 0.00 | 1.69 | 0.34 | 86 | 1008.7 |
| 20260510195512 | 58 | 355 | 0.0 | 0.0 | 0.00 | 1.69 | 0.34 | 86 | 1008.6 |
| 20260510195020 | 59 | 355 | 0.0 | 0.0 | 0.00 | 1.69 | 0.34 | 86 | 1008.6 |
| 20260510194528 | 59 | 355 | 0.0 | 0.0 | 0.00 | 1.69 | 0.34 | 85 | 1008.6 |
| 20260510194014 | 59 | 355 | 0.0 | 0.0 | 0.00 | 1.69 | 0.34 | 83 | 1008.6 |
| 20260510193522 | 59 | 355 | 0.0 | 0.0 | 0.00 | 1.69 | 0.34 | 82 | 1008.5 |
| 20260510193010 | 59 | 355 | 0.0 | 0.0 | 0.00 | 1.69 | 0.34 | 82 | 1008.5 |
| 20260510192518 | 59 | 355 | 0.0 | 0.0 | 0.00 | 1.69 | 0.34 | 81 | 1008.5 |
| 20260510192047 | 60 | 355 | 0.0 | 0.0 | 0.00 | 1.69 | 0.34 | 81 | 1008.5 |
| 20260510191514 | 60 | 355 | 0.0 | 0.0 | 0.00 | 1.69 | 0.34 | 81 | 1008.5 |
| 20260510191019 | 60 | 355 | 0.0 | 1.0 | 0.00 | 1.69 | 0.34 | 81 | 1008.5 |
| 20260510190527 | 60 | 355 | 0.0 | 1.0 | 0.00 | 1.69 | 0.34 | 81 | 1008.4 |
| 20260510190014 | 60 | 355 | 0.0 | 4.0 | 0.00 | 1.85 | 0.34 | 81 | 1008.4 |
| 20260510185522 | 60 | 355 | 0.0 | 4.0 | 0.00 | 1.85 | 0.34 | 81 | 1008.4 |
| 20260510185010 | 60 | 355 | 1.0 | 4.0 | 0.00 | 1.85 | 0.34 | 81 | 1008.2 |
| 20260510184536 | 61 | 355 | 1.0 | 5.0 | 0.00 | 1.85 | 0.34 | 82 | 1008.3 |
| 20260510184022 | 61 | 355 | 2.0 | 5.0 | 0.00 | 1.85 | 0.34 | 82 | 1008.3 |
| 20260510183511 | 61 | 349 | 0.0 | 8.0 | 0.00 | 1.85 | 0.34 | 82 | 1008.3 |
| 20260510183015 | 61 | 351 | 2.0 | 8.0 | 0.00 | 1.85 | 0.34 | 82 | 1008.2 |
| 20260510182524 | 61 | 344 | 2.0 | 10.0 | 0.00 | 1.85 | 0.34 | 81 | 1008.3 |
| 20260510182016 | 61 | 331 | 2.0 | 9.0 | 0.00 | 1.85 | 0.34 | 81 | 1008.3 |
| 20260510181523 | 62 | 360 | 3.0 | 9.0 | 0.00 | 1.85 | 0.34 | 79 | 1008.1 |
| 20260510181031 | 62 | 360 | 4.0 | 9.0 | 0.00 | 1.85 | 0.34 | 78 | 1008.1 |
| 20260510180518 | 63 | 355 | 4.0 | 9.0 | 0.00 | 1.85 | 0.34 | 76 | 1008.2 |
| 20260510180026 | 63 | 355 | 3.0 | 6.0 | 0.00 | 1.85 | 0.34 | 75 | 1008.1 |
| 20260510175515 | 63 | 337 | 1.0 | 6.0 | 0.00 | 1.85 | 0.34 | 74 | 1008.0 |
| 20260510175019 | 63 | 227 | 2.0 | 4.0 | 0.00 | 1.85 | 0.34 | 71 | 1008.0 |
| 20260510174528 | 63 | 223 | 0.0 | 3.0 | 0.00 | 1.85 | 0.34 | 72 | 1008.1 |
| 20260510174036 | 63 | 223 | 0.0 | 3.0 | 0.00 | 1.85 | 0.34 | 72 | 1008.0 |
| 20260510173523 | 63 | 223 | 0.0 | 3.0 | 0.00 | 1.85 | 0.34 | 70 | 1008.0 |
| 20260510173011 | 64 | 223 | 0.0 | 5.0 | 0.00 | 1.85 | 0.34 | 70 | 1007.9 |
| 20260510172519 | 64 | 223 | 3.0 | 5.0 | 0.00 | 1.85 | 0.34 | 71 | 1007.9 |
| 20260510172028 | 63 | 222 | 0.0 | 4.0 | 0.00 | 1.85 | 0.34 | 72 | 1007.9 |
| 20260510171516 | 63 | 222 | 2.0 | 4.0 | 0.00 | 1.85 | 0.34 | 73 | 1007.9 |
| 20260510171024 | 63 | 219 | 1.0 | 7.0 | 0.00 | 1.85 | 0.34 | 74 | 1007.9 |
| 20260510170512 | 63 | 219 | 1.0 | 7.0 | 0.00 | 1.85 | 0.34 | 74 | 1007.9 |
| 20260510170021 | 63 | 257 | 0.0 | 7.0 | 0.00 | 1.85 | 0.34 | 78 | 1007.8 |
| 20260510165509 | 62 | 257 | 2.0 | 8.0 | 0.00 | 1.85 | 0.34 | 78 | 1007.9 |
| 20260510165015 | 62 | 181 | 3.0 | 5.0 | 0.00 | 1.85 | 0.34 | 80 | 1008.0 |
| 20260510164523 | 62 | 178 | 2.0 | 5.0 | 0.00 | 1.85 | 0.34 | 82 | 1008.1 |
| 20260510164010 | 61 | 178 | 0.0 | 5.0 | 0.00 | 1.85 | 0.34 | 86 | 1008.1 |
| 20260510163519 | 60 | 178 | 1.0 | 4.0 | 0.00 | 1.85 | 0.34 | 86 | 1008.1 |
| 20260510163026 | 60 | 178 | 1.0 | 5.0 | 0.00 | 1.85 | 0.34 | 89 | 1008.0 |
| 20260510162514 | 59 | 178 | 1.0 | 5.0 | 0.00 | 1.85 | 0.34 | 89 | 1008.1 |
| 20260510162042 | 59 | 175 | 1.0 | 5.0 | 0.04 | 1.85 | 0.34 | 91 | 1008.0 |
| 20260510161510 | 59 | 169 | 3.0 | 5.0 | 0.04 | 1.85 | 0.34 | 92 | 1008.1 |
| 20260510161016 | 59 | 168 | 0.0 | 5.0 | 0.04 | 1.85 | 0.34 | 94 | 1008.0 |
| 20260510160545 | 58 | 168 | 1.0 | 7.0 | 0.04 | 1.85 | 0.34 | 95 | 1007.9 |
| 20260510160013 | 57 | 168 | 3.0 | 7.0 | 0.04 | 1.85 | 0.34 | 95 | 1007.8 |
| 20260510155542 | 57 | 159 | 0.0 | 1.0 | 0.04 | 1.85 | 0.34 | 95 | 1007.8 |
| 20260510155008 | 57 | 159 | 0.0 | 2.0 | 0.04 | 1.85 | 0.34 | 95 | 1007.7 |
| 20260510154514 | 57 | 159 | 0.0 | 2.0 | 0.04 | 1.85 | 0.34 | 95 | 1007.7 |
| 20260510154021 | 57 | 159 | 0.0 | 3.0 | 0.04 | 1.85 | 0.34 | 95 | 1007.7 |
| 20260510153510 | 57 | 159 | 1.0 | 4.0 | 0.04 | 1.85 | 0.34 | 94 | 1007.7 |
| 20260510153039 | 57 | 170 | 1.0 | 2.0 | 0.04 | 1.85 | 0.34 | 95 | 1007.8 |
| 20260510152526 | 57 | 170 | 0.0 | 3.0 | 0.04 | 1.85 | 0.34 | 95 | 1007.9 |
| 20260510152014 | 57 | 171 | 0.0 | 5.0 | 0.04 | 1.81 | 0.33 | 95 | 1008.0 |
| 20260510151522 | 57 | 171 | 2.0 | 6.0 | 0.04 | 1.81 | 0.33 | 95 | 1008.2 |
| 20260510151010 | 57 | 170 | 2.0 | 6.0 | 0.08 | 1.81 | 0.33 | 95 | 1008.3 |
| 20260510150519 | 56 | 170 | 0.0 | 5.0 | 0.12 | 1.81 | 0.33 | 95 | 1008.2 |
| 20260510150028 | 56 | 169 | 2.0 | 5.0 | 0.12 | 2.13 | 0.33 | 95 | 1008.2 |
| 20260510145516 | 55 | 157 | 0.0 | 5.0 | 0.16 | 2.13 | 0.33 | 95 | 1008.4 |
| 20260510145024 | 55 | 157 | 1.0 | 5.0 | 0.20 | 2.13 | 0.33 | 95 | 1008.4 |
| 20260510144512 | 55 | 134 | 0.0 | 0.0 | 0.35 | 2.13 | 0.33 | 94 | 1008.4 |
| 20260510144019 | 54 | 134 | 0.0 | 3.0 | 0.63 | 2.13 | 0.33 | 93 | 1008.4 |
| 20260510143527 | 54 | 134 | 1.0 | 3.0 | 0.83 | 2.13 | 0.33 | 92 | 1008.3 |
| 20260510143031 | 54 | 134 | 0.0 | 6.0 | 1.46 | 2.13 | 0.33 | 92 | 1008.3 |
| 20260510142521 | 54 | 135 | 1.0 | 6.0 | 1.61 | 2.13 | 0.33 | 92 | 1007.9 |
| 20260510142026 | 54 | 228 | 1.0 | 5.0 | 1.57 | 2.09 | 0.32 | 92 | 1007.8 |
| 20260510141515 | 54 | 267 | 1.0 | 3.0 | 1.57 | 2.09 | 0.32 | 90 | 1007.8 |
| 20260510141019 | 53 | 267 | 0.0 | 3.0 | 1.54 | 2.05 | 0.31 | 89 | 1007.5 |
| 20260510140547 | 53 | 267 | 0.0 | 12.0 | 1.50 | 2.01 | 0.31 | 88 | 1007.5 |
| 20260510140013 | 54 | 267 | 7.0 | 12.0 | 1.50 | 2.01 | 0.31 | 86 | 1007.9 |
| 20260510135519 | 55 | 88 | 1.0 | 11.0 | 1.46 | 1.97 | 0.30 | 84 | 1007.6 |
| 20260510135027 | 56 | 109 | 6.0 | 11.0 | 1.42 | 1.93 | 0.29 | 82 | 1007.5 |
| 20260510134515 | 57 | 74 | 5.0 | 9.0 | 1.22 | 1.73 | 0.25 | 77 | 1007.6 |
| 20260510134022 | 58 | 183 | 4.0 | 17.0 | 0.98 | 1.50 | 0.20 | 73 | 1007.9 |
| 20260510133511 | 59 | 209 | 2.0 | 23.0 | 0.75 | 1.26 | 0.16 | 70 | 1007.8 |
| 20260510133019 | 62 | 212 | 16.0 | 23.0 | 0.12 | 0.63 | 0.03 | 70 | 1007.9 |
| 20260510132527 | 62 | 58 | 7.0 | 13.0 | 0.00 | 0.51 | 0.01 | 74 | 1006.8 |
| 20260510132015 | 63 | 360 | 4.0 | 13.0 | 0.00 | 0.51 | 0.01 | 76 | 1006.6 |
| 20260510131524 | 63 | 58 | 7.0 | 14.0 | 0.00 | 0.51 | 0.01 | 76 | 1006.2 |
| 20260510131032 | 64 | 26 | 9.0 | 15.0 | 0.00 | 0.51 | 0.01 | 76 | 1006.1 |
| 20260510130539 | 64 | 46 | 8.0 | 15.0 | 0.00 | 0.51 | 0.01 | 76 | 1006.2 |
| 20260510130026 | 65 | 54 | 8.0 | 14.0 | 0.00 | 0.51 | 0.01 | 75 | 1006.1 |
| 20260510125513 | 66 | 80 | 5.0 | 14.0 | 0.00 | 0.51 | 0.01 | 75 | 1006.0 |
| 20260510125022 | 66 | 360 | 5.0 | 12.0 | 0.00 | 0.51 | 0.01 | 76 | 1006.0 |
| 20260510124514 | 65 | 23 | 6.0 | 12.0 | 0.00 | 0.51 | 0.01 | 75 | 1006.0 |
| 20260510124018 | 65 | 51 | 5.0 | 13.0 | 0.00 | 0.51 | 0.01 | 74 | 1006.0 |
| 20260510123543 | 65 | 80 | 9.0 | 13.0 | 0.00 | 0.51 | 0.01 | 72 | 1006.0 |
| 20260510123014 | 64 | 46 | 8.0 | 13.0 | 0.00 | 0.51 | 0.01 | 72 | 1006.0 |
| 20260510122540 | 65 | 87 | 5.0 | 13.0 | 0.00 | 0.51 | 0.01 | 73 | 1006.0 |
| 20260510122012 | 65 | 80 | 7.0 | 13.0 | 0.00 | 0.51 | 0.01 | 73 | 1006.1 |
| 20260510121537 | 65 | 93 | 6.0 | 13.0 | 0.00 | 0.51 | 0.01 | 75 | 1006.2 |
| 20260510121024 | 64 | 92 | 8.0 | 16.0 | 0.00 | 0.51 | 0.01 | 72 | 1006.2 |
| 20260510120517 | 64 | 94 | 6.0 | 16.0 | 0.00 | 0.51 | 0.01 | 78 | 1006.3 |
| 20260510120025 | 64 | 59 | 7.0 | 17.0 | 0.00 | 0.51 | 0.01 | 80 | 1006.2 |
| 20260510115534 | 63 | 65 | 5.0 | 18.0 | 0.00 | 0.51 | 0.01 | 82 | 1006.3 |
| 20260510115019 | 63 | 79 | 10.0 | 18.0 | 0.00 | 0.51 | 0.01 | 82 | 1006.3 |
| 20260510114543 | 63 | 98 | 10.0 | 18.0 | 0.00 | 0.51 | 0.01 | 83 | 1006.3 |
| 20260510114014 | 62 | 136 | 8.0 | 18.0 | 0.00 | 0.51 | 0.01 | 83 | 1006.4 |
| 20260510113523 | 62 | 86 | 8.0 | 18.0 | 0.00 | 0.51 | 0.01 | 84 | 1006.4 |
| 20260510113031 | 62 | 54 | 8.0 | 18.0 | 0.00 | 0.51 | 0.01 | 83 | 1006.4 |
| 20260510112518 | 62 | 37 | 6.0 | 16.0 | 0.00 | 0.51 | 0.01 | 84 | 1006.4 |
| 20260510112026 | 62 | 86 | 9.0 | 16.0 | 0.00 | 0.51 | 0.01 | 84 | 1006.5 |
| 20260510111536 | 62 | 61 | 7.0 | 16.0 | 0.00 | 0.51 | 0.01 | 86 | 1006.6 |
| 20260510111022 | 62 | 88 | 7.0 | 14.0 | 0.00 | 0.51 | 0.01 | 86 | 1006.7 |
| 20260510110510 | 61 | 42 | 5.0 | 12.0 | 0.00 | 0.51 | 0.01 | 88 | 1006.6 |
| 20260510110018 | 61 | 101 | 6.0 | 18.0 | 0.00 | 0.51 | 0.01 | 88 | 1006.7 |
| 20260510105526 | 61 | 57 | 6.0 | 18.0 | 0.00 | 0.51 | 0.01 | 87 | 1006.7 |
| 20260510105014 | 61 | 97 | 6.0 | 20.0 | 0.00 | 0.51 | 0.01 | 87 | 1006.7 |
| 20260510104522 | 61 | 52 | 10.0 | 20.0 | 0.00 | 0.51 | 0.01 | 86 | 1006.7 |
| 20260510104009 | 61 | 53 | 9.0 | 17.0 | 0.00 | 0.51 | 0.01 | 87 | 1006.8 |
| 20260510103518 | 61 | 32 | 10.0 | 20.0 | 0.00 | 0.51 | 0.01 | 87 | 1006.8 |
| 20260510103025 | 61 | 66 | 12.0 | 20.0 | 0.00 | 0.51 | 0.01 | 87 | 1006.7 |
| 20260510102513 | 61 | 38 | 9.0 | 17.0 | 0.00 | 0.51 | 0.01 | 88 | 1006.8 |
| 20260510102021 | 61 | 17 | 10.0 | 17.0 | 0.00 | 0.51 | 0.01 | 87 | 1006.8 |
| 20260510101508 | 62 | 44 | 11.0 | 17.0 | 0.00 | 0.51 | 0.01 | 86 | 1006.8 |
| 20260510101037 | 62 | 45 | 10.0 | 18.0 | 0.00 | 0.51 | 0.01 | 86 | 1006.7 |
| 20260510100525 | 62 | 40 | 11.0 | 18.0 | 0.00 | 0.51 | 0.01 | 85 | 1006.7 |
| 20260510100032 | 62 | 32 | 10.0 | 17.0 | 0.00 | 0.51 | 0.01 | 82 | 1006.7 |
| 20260510095520 | 62 | 53 | 11.0 | 17.0 | 0.00 | 0.51 | 0.01 | 82 | 1006.7 |
| 20260510095028 | 63 | 51 | 11.0 | 16.0 | 0.00 | 0.51 | 0.01 | 82 | 1006.6 |
| 20260510094536 | 63 | 11 | 11.0 | 16.0 | 0.00 | 0.51 | 0.01 | 81 | 1006.7 |
| 20260510094041 | 63 | 49 | 8.0 | 14.0 | 0.00 | 0.51 | 0.01 | 82 | 1006.6 |
| 20260510093528 | 63 | 36 | 8.0 | 16.0 | 0.00 | 0.51 | 0.01 | 85 | 1006.7 |
| 20260510093016 | 63 | 15 | 10.0 | 16.0 | 0.00 | 0.51 | 0.01 | 83 | 1006.6 |
| 20260510092525 | 63 | 28 | 11.0 | 16.0 | 0.00 | 0.51 | 0.01 | 81 | 1006.6 |
| 20260510092013 | 63 | 51 | 6.0 | 16.0 | 0.00 | 0.51 | 0.01 | 81 | 1006.7 |
| 20260510091521 | 63 | 46 | 10.0 | 16.0 | 0.00 | 0.51 | 0.01 | 79 | 1006.7 |
| 20260510091010 | 63 | 360 | 9.0 | 16.0 | 0.00 | 0.51 | 0.01 | 81 | 1006.5 |
| 20260510090518 | 63 | 49 | 8.0 | 14.0 | 0.00 | 0.51 | 0.01 | 79 | 1006.5 |
| 20260510090027 | 63 | 45 | 9.0 | 14.0 | 0.00 | 0.51 | 0.01 | 77 | 1006.5 |
| 20260510085514 | 62 | 16 | 6.0 | 13.0 | 0.00 | 0.51 | 0.01 | 76 | 1006.5 |
| 20260510085022 | 62 | 28 | 8.0 | 13.0 | 0.00 | 0.51 | 0.01 | 76 | 1006.4 |
| 20260510084509 | 62 | 37 | 8.0 | 12.0 | 0.00 | 0.51 | 0.01 | 77 | 1006.5 |
| 20260510084016 | 62 | 27 | 9.0 | 14.0 | 0.00 | 0.51 | 0.01 | 76 | 1006.5 |
| 20260510083524 | 62 | 36 | 8.0 | 14.0 | 0.00 | 0.51 | 0.01 | 77 | 1006.6 |
| 20260510083012 | 62 | 50 | 5.0 | 10.0 | 0.00 | 0.51 | 0.01 | 78 | 1006.6 |
| 20260510082521 | 62 | 22 | 4.0 | 12.0 | 0.00 | 0.51 | 0.01 | 79 | 1006.7 |
| 20260510082010 | 62 | 72 | 6.0 | 12.0 | 0.00 | 0.51 | 0.01 | 80 | 1006.7 |
| 20260510081518 | 61 | 19 | 5.0 | 8.0 | 0.04 | 0.51 | 0.01 | 81 | 1006.7 |
| 20260510081026 | 61 | 43 | 0.0 | 5.0 | 0.04 | 0.51 | 0.01 | 82 | 1006.8 |
| 20260510080514 | 61 | 52 | 1.0 | 7.0 | 0.04 | 0.51 | 0.01 | 82 | 1006.8 |
| 20260510080042 | 61 | 51 | 2.0 | 7.0 | 0.04 | 0.51 | 0.01 | 81 | 1006.8 |
| 20260510075509 | 61 | 57 | 3.0 | 10.0 | 0.04 | 0.51 | 0.01 | 81 | 1006.7 |
| 20260510075016 | 61 | 52 | 4.0 | 10.0 | 0.04 | 0.51 | 0.01 | 81 | 1006.6 |
| 20260510074524 | 61 | 39 | 3.0 | 10.0 | 0.04 | 0.51 | 0.01 | 82 | 1006.6 |
| 20260510074013 | 60 | 25 | 4.0 | 8.0 | 0.04 | 0.51 | 0.01 | 82 | 1006.4 |
| 20260510073541 | 60 | 26 | 5.0 | 8.0 | 0.04 | 0.51 | 0.01 | 84 | 1006.5 |
| 20260510073008 | 60 | 40 | 2.0 | 6.0 | 0.04 | 0.51 | 0.01 | 88 | 1006.5 |
| 20260510072516 | 59 | 32 | 2.0 | 8.0 | 0.04 | 0.51 | 0.01 | 91 | 1006.5 |
| 20260510072046 | 58 | 44 | 2.0 | 5.0 | 0.04 | 0.51 | 0.01 | 94 | 1006.5 |
| 20260510071534 | 58 | 150 | 0.0 | 0.0 | 0.00 | 0.47 | 0.00 | 95 | 1006.6 |
| 20260510071022 | 57 | 150 | 0.0 | 0.0 | 0.00 | 0.47 | 0.00 | 95 | 1006.5 |
| 20260510070511 | 57 | 150 | 0.0 | 0.0 | 0.00 | 0.47 | 0.00 | 96 | 1006.5 |
| 20260510070019 | 56 | 150 | 0.0 | 0.0 | 0.00 | 0.47 | 0.00 | 96 | 1006.4 |
| 20260510065526 | 56 | 150 | 0.0 | 2.0 | 0.00 | 0.47 | 0.00 | 97 | 1006.5 |
| 20260510065015 | 55 | 150 | 0.0 | 2.0 | 0.00 | 0.47 | 0.00 | 98 | 1006.6 |
| 20260510064523 | 55 | 150 | 0.0 | 2.0 | 0.00 | 0.47 | 0.00 | 98 | 1006.5 |
| 20260510064011 | 54 | 150 | 0.0 | 2.0 | 0.00 | 0.47 | 0.00 | 99 | 1006.4 |
| 20260510063519 | 54 | 150 | 0.0 | 0.0 | 0.00 | 0.47 | 0.00 | 99 | 1006.3 |
| 20260510063028 | 54 | 150 | 0.0 | 0.0 | 0.00 | 0.47 | 0.00 | 99 | 1006.5 |
| 20260510062516 | 53 | 150 | 0.0 | 0.0 | 0.00 | 0.47 | 0.00 | 99 | 1006.5 |
| 20260510062024 | 53 | 150 | 0.0 | 0.0 | 0.00 | 0.47 | 0.00 | 98 | 1006.4 |
| 20260510061533 | 53 | 150 | 0.0 | 2.0 | 0.00 | 0.47 | 0.00 | 98 | 1006.4 |
| 20260510061020 | 52 | 150 | 0.0 | 2.0 | 0.00 | 0.47 | 0.00 | 98 | 1006.2 |
| 20260510060549 | 52 | 150 | 0.0 | 1.0 | 0.00 | 0.47 | 0.00 | 98 | 1006.1 |
| 20260510060014 | 52 | 150 | 0.0 | 0.0 | 0.00 | 0.47 | 0.00 | 98 | 1006.2 |
| 20260510055522 | 52 | 150 | 0.0 | 0.0 | 0.00 | 0.47 | 0.00 | 98 | 1006.1 |
| 20260510055010 | 52 | 150 | 0.0 | 0.0 | 0.00 | 0.47 | 0.00 | 98 | 1006.1 |
| 20260510054539 | 53 | 150 | 0.0 | 0.0 | 0.00 | 0.47 | 0.00 | 98 | 1006.0 |
| 20260510054026 | 53 | 150 | 0.0 | 0.0 | 0.00 | 0.47 | 0.00 | 98 | 1005.9 |
| 20260510053514 | 53 | 150 | 0.0 | 2.0 | 0.00 | 0.47 | 0.00 | 98 | 1006.0 |
| 20260510053021 | 53 | 150 | 0.0 | 3.0 | 0.00 | 0.47 | 0.00 | 98 | 1006.0 |
| 20260510052510 | 53 | 150 | 2.0 | 3.0 | 0.00 | 0.47 | 0.00 | 98 | 1006.0 |
| 20260510052016 | 53 | 150 | 0.0 | 0.0 | 0.00 | 0.47 | 0.00 | 98 | 1006.0 |
| 20260510051509 | 53 | 150 | 0.0 | 0.0 | 0.00 | 0.47 | 0.00 | 98 | 1006.0 |
| 20260510051017 | 53 | 150 | 0.0 | 0.0 | 0.00 | 0.47 | 0.00 | 98 | 1006.1 |
| 20260510050525 | 53 | 150 | 0.0 | 0.0 | 0.00 | 0.47 | 0.00 | 98 | 1006.1 |
| 20260510050013 | 53 | 150 | 0.0 | 0.0 | 0.00 | 0.51 | 0.00 | 98 | 1006.0 |
| 20260510045521 | 53 | 150 | 0.0 | 0.0 | 0.00 | 0.51 | 0.00 | 98 | 1006.1 |
| 20260510045009 | 53 | 150 | 0.0 | 1.0 | 0.00 | 0.51 | 0.00 | 98 | 1006.0 |
| 20260510044517 | 53 | 150 | 0.0 | 2.0 | 0.00 | 0.51 | 0.00 | 98 | 1005.9 |
| 20260510044024 | 53 | 150 | 0.0 | 2.0 | 0.00 | 0.51 | 0.00 | 98 | 1005.9 |
| 20260510043512 | 53 | 150 | 0.0 | 2.0 | 0.00 | 0.51 | 0.00 | 98 | 1005.8 |
| 20260510043019 | 53 | 150 | 1.0 | 2.0 | 0.00 | 0.51 | 0.00 | 98 | 1005.8 |
| 20260510042528 | 53 | 150 | 0.0 | 1.0 | 0.00 | 0.51 | 0.00 | 98 | 1005.8 |
| 20260510042015 | 53 | 150 | 0.0 | 1.0 | 0.00 | 0.51 | 0.00 | 98 | 1005.8 |
| 20260510041522 | 53 | 150 | 0.0 | 0.0 | 0.00 | 0.51 | 0.00 | 98 | 1005.8 |
| 20260510041011 | 53 | 150 | 0.0 | 0.0 | 0.00 | 0.51 | 0.00 | 98 | 1005.8 |
| 20260510040519 | 53 | 150 | 0.0 | 0.0 | 0.00 | 0.51 | 0.00 | 98 | 1005.7 |
| 20260510040027 | 53 | 150 | 0.0 | 0.0 | 0.00 | 0.51 | 0.00 | 98 | 1005.6 |
| 20260510035515 | 53 | 150 | 0.0 | 0.0 | 0.00 | 0.51 | 0.00 | 98 | 1005.6 |
| 20260510035023 | 53 | 150 | 0.0 | 1.0 | 0.00 | 0.51 | 0.00 | 97 | 1005.5 |
| 20260510034511 | 53 | 150 | 0.0 | 0.0 | 0.00 | 0.51 | 0.00 | 97 | 1005.4 |
| 20260510034038 | 53 | 150 | 0.0 | 0.0 | 0.00 | 0.51 | 0.00 | 97 | 1005.5 |
| 20260510033525 | 53 | 150 | 0.0 | 0.0 | 0.00 | 0.51 | 0.00 | 97 | 1005.6 |
| 20260510033012 | 53 | 150 | 0.0 | 3.0 | 0.00 | 0.51 | 0.00 | 97 | 1005.6 |
| 20260510032521 | 53 | 150 | 2.0 | 3.0 | 0.00 | 0.51 | 0.00 | 97 | 1005.5 |
| 20260510032009 | 53 | 150 | 0.0 | 1.0 | 0.00 | 0.51 | 0.00 | 97 | 1005.3 |
| 20260510031517 | 53 | 150 | 0.0 | 2.0 | 0.00 | 0.51 | 0.00 | 97 | 1005.5 |
| 20260510031025 | 54 | 150 | 0.0 | 3.0 | 0.00 | 0.51 | 0.00 | 97 | 1005.4 |
| 20260510030513 | 53 | 150 | 1.0 | 3.0 | 0.00 | 0.51 | 0.00 | 97 | 1005.3 |
| 20260510030021 | 53 | 150 | 1.0 | 3.0 | 0.00 | 0.51 | 0.00 | 97 | 1005.5 |
| 20260510025509 | 53 | 150 | 0.0 | 0.0 | 0.00 | 0.51 | 0.00 | 97 | 1005.5 |
| 20260510025015 | 53 | 150 | 0.0 | 0.0 | 0.00 | 0.51 | 0.00 | 97 | 1005.5 |
| 20260510024523 | 53 | 150 | 0.0 | 3.0 | 0.00 | 0.51 | 0.00 | 97 | 1005.5 |
| 20260510024032 | 53 | 150 | 0.0 | 3.0 | 0.00 | 0.51 | 0.00 | 97 | 1005.4 |
| 20260510023519 | 53 | 150 | 0.0 | 3.0 | 0.00 | 0.51 | 0.00 | 97 | 1005.5 |
| 20260510023028 | 53 | 150 | 1.0 | 3.0 | 0.00 | 0.51 | 0.00 | 97 | 1005.5 |
| 20260510022516 | 53 | 153 | 0.0 | 1.0 | 0.00 | 0.51 | 0.00 | 97 | 1005.4 |
| 20260510022044 | 53 | 153 | 0.0 | 1.0 | 0.00 | 0.51 | 0.00 | 97 | 1005.5 |
| 20260510021512 | 53 | 153 | 0.0 | 3.0 | 0.00 | 0.51 | 0.00 | 97 | 1005.4 |
| 20260510021020 | 53 | 153 | 0.0 | 3.0 | 0.00 | 0.51 | 0.00 | 97 | 1005.5 |
| 20260510020528 | 53 | 153 | 0.0 | 2.0 | 0.00 | 0.51 | 0.00 | 97 | 1005.5 |
| 20260510020016 | 53 | 153 | 0.0 | 1.0 | 0.00 | 0.51 | 0.00 | 96 | 1005.5 |
| 20260510015524 | 53 | 153 | 0.0 | 0.0 | 0.00 | 0.51 | 0.00 | 96 | 1005.5 |
| 20260510015012 | 53 | 153 | 0.0 | 0.0 | 0.00 | 0.51 | 0.00 | 96 | 1005.6 |
| 20260510014520 | 53 | 153 | 0.0 | 0.0 | 0.00 | 0.51 | 0.00 | 96 | 1005.5 |
| 20260510014028 | 53 | 153 | 0.0 | 0.0 | 0.00 | 0.51 | 0.00 | 96 | 1005.4 |
| 20260510013516 | 53 | 153 | 0.0 | 0.0 | 0.00 | 0.51 | 0.00 | 96 | 1005.5 |
| 20260510013024 | 53 | 153 | 0.0 | 0.0 | 0.00 | 0.51 | 0.00 | 96 | 1005.4 |
| 20260510012533 | 53 | 153 | 0.0 | 0.0 | 0.00 | 0.51 | 0.00 | 96 | 1005.3 |
| 20260510012019 | 53 | 153 | 0.0 | 0.0 | 0.00 | 0.51 | 0.00 | 96 | 1005.2 |
| 20260510011527 | 53 | 153 | 0.0 | 0.0 | 0.00 | 0.51 | 0.00 | 96 | 1005.3 |
| 20260510011035 | 53 | 153 | 0.0 | 0.0 | 0.00 | 0.51 | 0.00 | 95 | 1005.4 |
| 20260510010544 | 53 | 153 | 0.0 | 0.0 | 0.00 | 0.51 | 0.00 | 95 | 1005.5 |
| 20260510010011 | 53 | 153 | 0.0 | 0.0 | 0.00 | 0.51 | 0.00 | 95 | 1005.6 |
| 20260510005518 | 53 | 153 | 0.0 | 0.0 | 0.00 | 0.51 | 0.00 | 95 | 1005.6 |
| 20260510005047 | 53 | 153 | 0.0 | 0.0 | 0.00 | 0.51 | 0.00 | 95 | 1005.7 |
| 20260510004513 | 53 | 153 | 0.0 | 0.0 | 0.00 | 0.51 | 0.00 | 95 | 1005.7 |
| 20260510004022 | 53 | 153 | 0.0 | 0.0 | 0.00 | 0.51 | 0.00 | 94 | 1005.8 |
| 20260510003510 | 53 | 153 | 0.0 | 0.0 | 0.00 | 0.51 | 0.00 | 94 | 1005.7 |
| 20260510003017 | 53 | 153 | 0.0 | 0.0 | 0.00 | 0.51 | 0.00 | 94 | 1005.6 |
| 20260510002525 | 53 | 153 | 0.0 | 0.0 | 0.00 | 0.51 | 0.00 | 94 | 1005.5 |
| 20260510002014 | 53 | 153 | 0.0 | 0.0 | 0.00 | 0.51 | 0.00 | 94 | 1005.5 |
| 20260510001522 | 53 | 153 | 0.0 | 0.0 | 0.00 | 0.51 | 0.00 | 94 | 1005.4 |
| 20260510001031 | 53 | 153 | 0.0 | 0.0 | 0.00 | 0.51 | 0.00 | 93 | 1005.6 |
| 20260510000519 | 53 | 153 | 0.0 | 0.0 | 0.00 | 0.51 | 0.00 | 93 | 1005.6 |
| 20260510000047 | 54 | 153 | 0.0 | 0.0 | 0.00 | 0.51 | 0.10 | 93 | 1005.6 |
| 20260509235514 | 54 | 153 | 0.0 | 1.0 | 0.00 | 0.51 | 0.10 | 93 | 1005.6 |
| 20260509235022 | 54 | 153 | 0.0 | 1.0 | 0.00 | 0.51 | 0.10 | 93 | 1005.6 |
| 20260509234510 | 54 | 153 | 0.0 | 3.0 | 0.00 | 0.51 | 0.10 | 92 | 1005.7 |
| 20260509234017 | 54 | 153 | 1.0 | 6.0 | 0.00 | 0.51 | 0.10 | 92 | 1005.7 |
| 20260509233525 | 54 | 153 | 0.0 | 6.0 | 0.00 | 0.51 | 0.10 | 92 | 1005.7 |
| 20260509233012 | 54 | 149 | 1.0 | 3.0 | 0.00 | 0.51 | 0.10 | 92 | 1005.8 |
| 20260509232521 | 54 | 151 | 1.0 | 3.0 | 0.00 | 0.51 | 0.10 | 92 | 1005.8 |
| 20260509232023 | 55 | 161 | 0.0 | 0.0 | 0.00 | 0.51 | 0.10 | 91 | 1005.8 |
| 20260509231511 | 55 | 161 | 0.0 | 0.0 | 0.00 | 0.51 | 0.10 | 91 | 1005.9 |
| 20260509231018 | 55 | 161 | 0.0 | 3.0 | 0.00 | 0.51 | 0.10 | 91 | 1005.9 |
| 20260509230526 | 55 | 161 | 0.0 | 5.0 | 0.00 | 0.51 | 0.10 | 90 | 1006.0 |
| 20260509230013 | 55 | 261 | 0.0 | 3.0 | 0.00 | 0.51 | 0.10 | 90 | 1005.9 |
| 20260509225521 | 56 | 261 | 0.0 | 0.0 | 0.00 | 0.51 | 0.10 | 90 | 1005.8 |
| 20260509225009 | 56 | 261 | 0.0 | 0.0 | 0.00 | 0.51 | 0.10 | 90 | 1006.0 |
| 20260509224517 | 56 | 261 | 0.0 | 1.0 | 0.00 | 0.51 | 0.10 | 89 | 1006.0 |
| 20260509224010 | 56 | 261 | 0.0 | 1.0 | 0.00 | 0.51 | 0.10 | 89 | 1005.9 |
| 20260509223518 | 56 | 261 | 0.0 | 0.0 | 0.00 | 0.51 | 0.10 | 88 | 1005.9 |
| 20260509223044 | 57 | 261 | 0.0 | 0.0 | 0.00 | 0.51 | 0.10 | 88 | 1005.9 |
| 20260509222531 | 57 | 261 | 0.0 | 0.0 | 0.00 | 0.51 | 0.10 | 88 | 1005.9 |
| 20260509222017 | 57 | 261 | 0.0 | 0.0 | 0.00 | 0.51 | 0.10 | 88 | 1005.9 |
| 20260509221508 | 57 | 261 | 0.0 | 4.0 | 0.00 | 0.51 | 0.10 | 88 | 1005.9 |
| 20260509221017 | 57 | 261 | 1.0 | 6.0 | 0.00 | 0.51 | 0.10 | 88 | 1005.9 |
| 20260509220525 | 56 | 261 | 2.0 | 6.0 | 0.00 | 0.51 | 0.10 | 89 | 1005.9 |
| 20260509220014 | 56 | 259 | 0.0 | 6.0 | 0.00 | 0.51 | 0.10 | 89 | 1005.8 |
| 20260509215522 | 56 | 259 | 1.0 | 9.0 | 0.00 | 0.51 | 0.10 | 90 | 1005.8 |
| 20260509215010 | 56 | 259 | 4.0 | 9.0 | 0.00 | 0.51 | 0.10 | 92 | 1005.7 |
| 20260509214519 | 56 | 261 | 5.0 | 8.0 | 0.00 | 0.51 | 0.10 | 93 | 1005.6 |
| 20260509214048 | 56 | 96 | 0.0 | 2.0 | 0.00 | 0.51 | 0.10 | 93 | 1005.5 |
| 20260509213535 | 56 | 96 | 0.0 | 0.0 | 0.00 | 0.51 | 0.10 | 92 | 1005.3 |
| 20260509213021 | 56 | 96 | 0.0 | 0.0 | 0.00 | 0.51 | 0.10 | 92 | 1005.3 |
| 20260509212509 | 57 | 96 | 0.0 | 0.0 | 0.00 | 0.51 | 0.10 | 92 | 1005.2 |
| 20260509212018 | 57 | 96 | 0.0 | 0.0 | 0.00 | 0.51 | 0.10 | 92 | 1005.3 |
| 20260509211526 | 57 | 96 | 0.0 | 0.0 | 0.00 | 0.51 | 0.10 | 92 | 1005.2 |
| 20260509211014 | 57 | 96 | 0.0 | 0.0 | 0.00 | 0.51 | 0.10 | 92 | 1005.3 |
| 20260509210522 | 57 | 96 | 0.0 | 0.0 | 0.00 | 0.51 | 0.10 | 91 | 1005.2 |
| 20260509210010 | 57 | 96 | 0.0 | 0.0 | 0.00 | 0.51 | 0.10 | 91 | 1005.3 |
| 20260509205539 | 57 | 96 | 0.0 | 0.0 | 0.00 | 0.51 | 0.10 | 91 | 1005.2 |
| 20260509205027 | 58 | 96 | 0.0 | 0.0 | 0.00 | 0.51 | 0.10 | 91 | 1005.2 |
| 20260509204536 | 58 | 96 | 0.0 | 0.0 | 0.00 | 0.51 | 0.10 | 91 | 1005.0 |
| 20260509204019 | 58 | 96 | 0.0 | 3.0 | 0.00 | 0.51 | 0.10 | 91 | 1005.0 |
| 20260509203528 | 58 | 96 | 0.0 | 3.0 | 0.00 | 0.51 | 0.10 | 91 | 1004.9 |
| 20260509203017 | 58 | 96 | 2.0 | 3.0 | 0.00 | 0.51 | 0.10 | 91 | 1004.9 |
| 20260509202525 | 58 | 96 | 0.0 | 1.0 | 0.00 | 0.51 | 0.10 | 90 | 1004.8 |
| 20260509202013 | 59 | 96 | 0.0 | 1.0 | 0.00 | 0.51 | 0.10 | 89 | 1004.6 |
| 20260509201521 | 59 | 96 | 0.0 | 3.0 | 0.00 | 0.51 | 0.10 | 89 | 1004.6 |